Theta_e
340 341 341 342 345 347 348 349 351 349 350 351 351 350 350 349 349 347 346 346 348 350 347 349 350 352 348 348 346 345 343 341
340 340 341 342 344 345 347 348 347 348 350 348 348 346 347 347 348 345 343 342 343 345 344 344 347 347 346 345 344 344 343 342
342 343 342 343 342 343 346 346 347 347 348 348 347 346 346 347 347 345 342 340 340 341 343 343 345 347 347 344 342 342 341 339
341 341 340 341 343 343 345 346 348 348 347 346 346 346 347 347 347 345 344 340 338 340 339 341 343 345 346 344 342 342 340 339
341 342 340 342 343 343 343 345 347 347 347 347 346 347 347 345 346 346 344 341 339 340 340 340 342 344 344 343 340 339 337 334
341 343 342 343 343 343 344 345 346 345 345 346 345 345 345 344 344 345 344 341 340 341 342 341 344 344 342 339 335 331 330 329
331 343 342 342 342 343 341 342 341 341 339 341 340 341 341 342 341 343 343 340 341 342 344 342 340 338 337 334 329 330 326 325
317 341 343 342 341 341 339 339 339 337 337 338 338 338 339 340 340 341 343 342 343 341 340 338 336 335 332 329 327 324 324 322
328 338 340 339 338 337 336 336 337 338 336 336 336 335 337 339 341 343 344 344 342 339 336 334 333 332 329 327 326 325 322 323
334 335 336 336 336 336 335 337 338 339 338 337 337 340 340 343 344 343 344 342 340 337 334 332 331 327 326 326 326 323 321 320
333 335 334 336 335 335 335 337 337 340 341 341 343 343 342 343 343 342 342 342 339 336 334 330 328 327 325 325 324 322 319 324
330 335 335 335 336 337 337 337 337 338 344 341 340 339 338 341 342 340 340 338 336 335 333 330 327 325 325 326 328 325 324 322
327 332 336 336 337 337 336 335 334 338 345 343 341 338 340 342 338 336 334 335 335 332 330 327 325 325 324 327 325 323 322 319
324 331 334 336 337 337 336 332 334 338 343 342 341 340 339 335 333 333 332 331 329 329 328 325 325 326 326 324 322 320 318 317
317 325 331 333 334 334 334 332 330 334 339 340 338 341 339 334 334 332 329 327 327 326 326 325 324 323 322 321 319 318 317 316
310 320 327 331 333 334 334 332 328 332 338 337 339 340 338 334 334 332 329 328 327 326 323 321 320 320 319 319 318 317 317 315
298 319 324 329 332 333 333 331 330 330 337 339 337 335 332 330 330 330 328 326 324 321 320 318 316 315 314 313 311 311 311 310
298 312 322 327 331 333 333 332 332 330 337 338 332 329 329 329 329 327 324 321 320 317 314 312 310 309 308 307 306 307 306 305
301 302 323 325 328 328 328 332 336 333 334 331 329 329 329 329 325 321 317 316 313 310 308 307 305 304 305 305 305 304 303 303
302 300 323 322 324 324 328 335 336 333 330 329 327 326 325 321 316 315 313 307 307 305 304 303 302 301 301 301 301 301 302 303
Wind_Speed
14 17 18 16 17 12 14 15 14 14 11 9 6 6 6 4 7 6 4 3 3 2 2 1 1 3 1 1 0 1 1 1
11 15 17 19 18 18 13 14 13 13 10 9 8 8 8 7 6 6 4 2 3 2 2 3 3 1 2 2 0 1 2 2
12 7 11 15 19 18 15 12 12 11 13 10 9 8 9 8 9 10 8 6 5 4 3 2 3 3 3 2 3 2 3 2
13 15 14 18 16 18 15 13 12 11 11 11 9 8 8 7 7 7 8 7 6 5 3 2 3 3 3 2 2 2 1 1
19 20 19 22 18 17 18 17 16 14 13 13 10 8 8 8 7 8 9 8 8 5 3 3 3 3 4 2 2 2 3 2
15 18 16 14 14 18 17 13 13 12 10 9 7 7 7 6 6 6 8 7 7 5 3 3 3 2 2 3 2 3 2 2
8 16 18 18 16 17 16 14 13 11 7 5 4 5 5 6 5 6 8 6 6 5 3 3 4 3 3 3 2 2 1 1
11 13 15 14 13 12 13 10 11 8 6 5 4 3 3 3 4 4 6 4 6 5 3 2 4 4 4 2 2 1 2 2
7 9 12 15 12 13 14 13 12 10 8 8 5 7 4 3 3 6 5 6 6 6 4 4 3 4 3 2 2 3 3 3
7 9 12 14 18 16 14 14 13 12 8 6 4 5 3 2 4 5 6 6 7 5 6 5 5 4 4 2 3 2 2 4
10 11 14 13 15 17 17 18 16 12 11 6 4 6 5 3 3 5 5 7 7 7 6 5 5 4 4 3 2 3 3 4
11 15 12 15 16 15 15 13 14 10 13 11 11 9 7 3 4 4 5 8 8 8 5 6 6 5 5 3 2 3 3 3
15 16 17 17 16 16 14 12 12 12 13 13 9 6 5 6 7 9 10 8 6 8 6 7 7 5 4 4 4 5 3 3
14 17 16 15 13 12 12 12 11 12 13 12 12 13 11 9 9 8 8 6 5 7 7 7 6 6 6 5 5 6 5 5
9 14 15 14 13 14 12 13 11 12 12 10 8 12 13 13 12 10 10 7 5 6 8 8 6 6 6 5 5 5 4 4
9 12 15 17 17 16 15 15 12 13 12 9 10 12 8 9 9 8 7 6 6 8 9 9 8 7 7 6 5 5 6 5
10 11 14 15 16 19 19 17 12 13 13 11 11 10 10 10 11 9 8 8 7 8 10 11 10 10 9 8 7 7 6 6
7 10 15 15 16 16 14 14 14 15 13 11 11 13 13 14 13 12 10 9 9 11 12 12 11 10 9 8 6 6 7 4
7 8 11 13 13 13 12 15 16 15 13 12 15 13 13 12 14 16 10 10 11 13 11 12 11 11 8 8 6 6 6 5
7 7 10 12 13 13 15 15 15 14 15 14 14 14 14 15 14 15 11 13 12 11 12 13 11 10 8 8 7 7 8 8
Wind_Direction
179 166 168 167 163 162 169 160 157 153 153 146 144 139 140 145 151 146 152 144 174 161 166 146 140 194 177 195 197 145 211 277
204 170 166 161 169 171 163 166 162 157 154 156 151 148 160 164 165 152 146 149 156 206 204 170 174 222 196 201 176 277 263 268
183 190 161 159 171 173 171 168 166 162 161 158 159 159 167 172 170 173 162 166 183 176 210 178 188 187 230 205 208 212 239 262
161 166 176 172 170 176 170 172 169 165 168 164 163 167 169 168 171 179 177 175 167 188 181 202 196 197 219 206 225 220 226 237
177 176 183 174 180 168 178 175 178 174 176 172 170 170 164 164 174 183 181 190 160 169 162 202 215 204 218 175 64 55 101 90
179 175 178 182 166 176 173 175 177 177 175 181 170 164 161 167 175 178 190 181 160 159 157 216 194 175 151 106 98 86 78 54
205 181 175 176 176 170 169 177 175 167 159 159 139 140 150 169 172 169 181 175 158 134 163 199 150 121 116 119 84 103 101 44
203 187 175 168 169 167 168 174 167 153 134 119 116 126 127 153 164 162 164 143 136 134 129 159 101 105 96 95 113 69 73 27
199 166 165 162 163 164 173 168 167 160 162 163 171 181 147 177 150 154 149 133 144 142 114 111 113 103 127 138 97 60 40 18
163 153 157 172 172 175 173 178 174 177 173 167 148 140 134 146 134 124 143 153 116 109 135 123 110 101 117 100 75 113 72 23
183 175 173 172 178 181 181 181 178 175 163 142 114 95 95 119 130 142 166 138 120 114 124 119 112 131 117 90 96 90 107 45
185 187 181 180 192 188 187 178 175 167 160 168 167 171 158 148 124 129 111 106 111 119 136 124 129 113 100 104 115 97 104 91
179 191 195 195 190 190 183 164 167 170 171 170 163 133 123 125 120 115 107 96 124 112 128 121 110 105 114 117 93 76 72 102
187 194 197 200 195 186 174 160 165 171 171 164 163 145 144 130 140 125 111 112 107 114 117 106 103 111 107 103 90 84 88 94
194 188 190 197 192 184 167 157 160 163 164 163 140 146 150 152 143 137 136 123 130 120 110 100 99 101 97 92 90 89 81 85
210 198 193 189 187 184 174 165 158 165 162 143 126 136 138 143 125 123 119 119 119 117 107 105 96 87 85 81 82 83 80 75
216 199 194 189 187 187 178 169 158 160 158 136 126 122 118 109 112 117 109 101 114 104 99 91 79 76 76 77 69 68 68 61
236 202 190 190 189 186 176 166 160 152 144 131 114 117 123 120 114 99 102 97 110 102 87 85 81 74 70 70 64 53 60 40
250 202 188 184 173 163 155 153 147 144 129 116 114 121 122 124 110 108 107 120 103 92 95 89 79 72 63 68 65 52 61 41
232 200 160 151 153 148 152 153 141 133 120 122 118 115 113 109 109 105 117 93 83 94 89 82 80 73 61 62 63 50 46 37